Regional Weather Roundup
Issued by NWS Wakefield, VA

Home | Current Version | Previous Version | Text Only | Print | Product List | Glossary Off
Versions: 1 2 3 4 5 6 7 8 9 10 11 12 13 14 15 16 17 18 19 20 21 22 23 24 25 26 27 28 29 30 31 32 33 34 35 36 37 38 39 40 41 42 43 44 45 46 47 48 49 50

000
ASUS41 KAKQ 220410
RWRAKQ

REGIONAL WEATHER ROUNDUP
NATIONAL WEATHER SERVICE WAKEFIELD VA
1100 PM EST SUN DEC 21 2014

Note: "fair" indicates few or no clouds below 12,000 feet with no
significant weather and/or obstructions to visibility. * = Denotes
station may not report precipitation (e.g., rain,snow,etc.),
thunder or fog.

VAZ042-051-052>054-056-220500-
NORTHERN VIRGINIA

CITY           SKY/WX    TMP DP  RH WIND       PRES   REMARKS
WASH NATIONAL  MOCLDY    36  25  64 NE6       30.36R
DULLES         PTCLDY    27  22  81 CALM      30.33S
FORT BELVOIR   CLEAR     26  23  87 CALM      30.36R
QUANTICO       CLEAR     29  25  85 NW6       30.35S
FREDERICKSBRG* PTCLDY    28  26  90 CALM      30.32F
STAFFORD*      PTCLDY    26  26 100 CALM      30.37S
WARRENTON      CLEAR     23  23 100 CALM      30.31F
CULPEPER*      CLEAR     25  25 100 N3        30.32S
MANASSAS*      CLEAR     25  21  86 CALM      30.34S
LEESBURG*      CLEAR     32  28  86 CALM      30.34S
WINCHESTER     CLEAR     28  21  74 CALM      30.30S
FRONT ROYAL*   PTCLDY    30  25  80 CALM      30.28S
LURAY*         PTCLDY    28  27  93 CALM      30.27F
$$

VAZ048-049-060>072-079>083-220500-
CENTRAL AND SOUTH CENTRAL VIRGINIA

CITY           SKY/WX    TMP DP  RH WIND       PRES   REMARKS
RICHMOND       CLOUDY    35  28  75 CALM      30.31R
CHESTERFIELD*  CLOUDY    36  19  51 CALM      30.32R
PETERSBURG*    CLOUDY    32  31  96 CALM      30.32R
HANOVER        CLOUDY    35  29  78 CALM      30.33R
TAPPAHANNOCK*  CLOUDY    30  26  85 CALM      30.32F
QUINTON*       CLOUDY    31  29  89 CALM      30.31S
CHARLOTTSVILLE CLOUDY    32  26  78 CALM      30.30R
GORDONSVILLE*  CLOUDY    26  24  91 CALM      30.30F
ORANGE*        PTCLDY    27  27 100 CALM      30.32S
LOUISA*        CLOUDY    34  28  80 CALM      30.29S
BUMPASS*       CLOUDY    31  27  84 CALM      30.30F
FARMVILLE*     CLOUDY    39  29  67 CALM      30.28S
CREWE*         CLOUDY    30  27  90 CALM      30.28S
FORT PICKETT*  CLOUDY    33  29  86 E5        30.29S
CHASE CITY*    CLOUDY    37  32  81 CALM      30.27R
CLARKSVILLE*   CLOUDY    37  32  81 E3        30.27R
SOUTH HILL*    CLOUDY    34  29  83 CALM      30.33S
LAWRENCEVILLE* CLOUDY    34  31  86 NE3       30.28S
EMPORIA*       CLOUDY    32  30  93 N3        30.30F
$$

VAZ088>098-220500-
SOUTHEAST VIRGINIA

CITY           SKY/WX    TMP DP  RH WIND       PRES   REMARKS
NORFOLK        PTCLDY    39  33  79 NE9       30.29S
VIRGINIA BEACH MOCLDY    42  33  70 NE8       30.28F
NORFOLK NAVAL  CLOUDY    42  32  67 NE10      30.30F
WEST POINT*    CLOUDY    34  30  85 CALM      30.32S
SALUDA*        MOCLDY    36  30  79 NE3       30.30F
NEWPORT NEWS   LGT RAIN  34  28  79 NE3       30.30S
LANGLEY AFB    PTCLDY    35  30  83 NE10      30.30F
FORT EUSTIS    MOCLDY    35  30  82 NE2       30.29S
WILLIAMSBURG*  MOCLDY    36  32  87 CALM      30.32R
HR EXEC AP*    PTCLDY    27  25  93 CALM      30.31S
FRANKLIN*      MOCLDY    30  28  93 CALM      30.29F
WAKEFIELD      CLOUDY    32  29  88 N3        30.30S
$$

VAZ020-022-025-037-045-220500-
WEST CENTRAL AND SOUTHWEST VIRGINIA

CITY           SKY/WX    TMP DP  RH WIND       PRES   REMARKS
STAUNTON*      CLOUDY    28  24  82 CALM      30.28S
WAYNESBORO*    CLOUDY    34  26  72 E6        30.25S
HOT SPRINGS VA CLOUDY    30  30 100 SE8       30.11S FOG
LYNCHBURG      CLOUDY    37  29  72 NE6       30.28R
DANVILLE       CLOUDY    38  31  76 NE5       30.26R
SOUTH BOSTON*  CLOUDY    36  30  79 CALM      30.28R
MARTINSVILLE   CLOUDY    40  33  75 E3        30.27R
ROANOKE        CLOUDY    40  29  64 SE8       30.26S
BLACKSBURG     CLOUDY    36  31  81 E7        30.22R
DUBLIN*        CLOUDY    39  35  85 E7        30.19S
MARION*        CLOUDY    39  34  83 E7        30.18R
HILLSVILLE*    CLOUDY    35  33  91 SE8       30.16R
RICHLANDS*     MOCLDY    37  31  79 SE9G17    30.10R
WISE*          CLEAR     37  32  81 S5        30.09S
ABINGDON*      CLOUDY    40  34  79 E6        30.12R
$$

MDZ021>025-VAZ099-100-220500-
SOUTHERN MARYLAND AND THE DELMARVA PENINSULA

CITY           SKY/WX    TMP DP  RH WIND       PRES   REMARKS
PATUXENT RIVER PTCLDY    27  24  89 CALM      30.33R
BAY BRIDGE APT   N/A     32  27  80 N3        30.34F
LEONARDTOWN    PTCLDY    30  27  86 CALM      30.34F
DOVER          CLEAR     27  24  87 N5        30.31F
GEORGETOWN     PTCLDY    27  22  81 CALM      30.34R
EASTON         CLEAR     30  26  86 CALM      30.37S
CAMBRIDGE      CLEAR     30  27  86 CALM      30.33S
SALISBURY      PTCLDY    28  23  81 CALM      30.33S HAZE
OCEAN CITY     PTCLDY    28  25  88 NW5       30.32F FOG
WALLOPS ISLAND MOCLDY    33  27  78 N5        30.33R
ACCOMACK*      MOCLDY    30  27  86 NE6       30.30F
$$

NCZ012>017-030>032-220500-
NORTH CENTRAL AND EASTERN NORTH CAROLINA

CITY           SKY/WX    TMP DP  RH WIND       PRES   REMARKS
ROANOKE RAPIDS CLOUDY    36  30  80 NE5       30.27F
RALEIGH        CLOUDY    43  31  62 NE7       30.24R
ELIZABETH CITY MOCLDY    43  36  76 N7        30.27R
AHOSKIE*       CLOUDY    36  30  79 NE6       30.27F
EDENTON*         N/A     39  34  83 NE5       30.26S
CURRITUCK*     MOCLDY    43  36  75 NE8       30.28R
KILL DEVIL HLS MOCLDY    47  42  83 NE8       30.23S
MANTEO         CLOUDY    47  42  84 NE17      30.24S
CAPE HATTERAS  LGT RAIN  48  46  93 NE8       30.20F
TARBORO*       CLOUDY    39  34  81 NE6       30.27F
GOLDSBORO      CLOUDY    44  41  90 NE8       30.21S
WASHINGTON     CLOUDY    40  35  80 NE6       30.25S
GREENVILLE     CLOUDY    41  34  75 NE5       30.25F
NEW BERN       LGT RAIN  44  39  82 NE8       30.22F
WILMINGTON     CLOUDY    44  42  93 N8        30.17S
$$

VAZ048-220500-
ELSEWHERE

CITY           SKY/WX    TMP DP  RH WIND       PRES   REMARKS
HARRISBURG PA  PTCLDY    24  20  84 CALM      30.34R
BALTIMORE      PTCLDY    31  22  69 NE5       30.34S
ANNAPOLIS      CLEAR     33  28  81 CALM      30.34S
ANDREWS AFB    PTCLDY    28  23  80 CALM      30.33R
PHILADELPHIA   PTCLDY    31  22  69 NW5       30.35S
HENDERSON NC   CLOUDY    37  31  77 NE6       30.26R
GREENSBORO     CLOUDY    41  33  73 E8        30.20F
ROCKY MOUNT    CLOUDY    42  33  70 NE7       30.26S
$$

VAZ100-220500-
MARINE

STATION/POSITION TIME  TEMP    WIND        PRES    WAVE   SWELL
                       AIR SEA DIR/SP/G            HT/PER HT/PER
                 (UTC) (F)     (DEG/KT/KT) (MB)    (FT/S) (FT/S)
CAPE MAY NJ      0400   32 43   60/  3/  4 1026.9R
LEWES DE         0400   38 42   50/ 10/ 12 1026.9F
15NM E FENWICK I 0400   40 45              1026.2F   1/10
OCEAN-CITY-INLET 0400   35 44  350/  4/  5 1026.1F
WACHAPREAGUE VA  0400   33 41  330/  3/  5 1026.4F
THOMAS POINT MD  0400   35 41   50/ 10/ 11 1028.4F
GOOSES REEF MD   0400   36     VRB 12/ 14  1026.4R
COVE POINT MD    0400   35      60/ 10/ 11 1027.1R
SOLOMONS ISLAND  0400      42                N/A
BISHOPS HEAD MD  0400   36 37   60/  7/  9 1026.5R
POTOMAC MD       0400   39      60/  8/ 10 1025.9R
CAMBRIDGE MD     0400   34 40   50/  5/  7 1027.3R
LEWISETTA VA     0400   38 41   60/  8/ 10 1026.4F
RAPPAHANNOCK LGT 0400           40/  9/ 10 1026.5F
STINGRAY PT      0400   40      70/ 10/ 12 1026.4F
YORK RVR RNG VA  0400   41      80/  8/ 10 1025.7R
YORKTOWN VA      0400   40 45   80/  6/  9 1026.1R
JAMESTOWN VA     0400   36      90/  4/  4   N/A
DOMINION TERM VA 0400   38      40/  4/  5 1026.0R
KIPTOPEKE VA     0400      48   50/  3/  4   N/A
CHES BAY BRIDGE  0400   41 46   30/ 11/ 12 1025.4R
CAPE HENRY VA    0400   42      50/ 12/ 14 1024.6R
CHESAPEAKE LGHT  0300   43      60/ 14/ 16 1026.3F
WILLOUBY STN VA  0400   40      50/ 10/ 11 1026.3R
S CRANEY ISL VA  0400           40/  8/ 10 1025.6F
CAPE HENRY BUOY  0400      49                N/A     2/ 3
1ST LANDING BUOY 0400   41      30/ 12/ 12 1025.5R
CAPE CHARLES BUO 0400      47                N/A     2/10   2/10
64NM E OF VA BCH 0400   49 55   40/ 16/ 17 1024.5F   2/ 4   2/10
DUCK PIER NC     0400   46 46   40/ 18/ 20 1023.6R
44100 DUCK FRF   0400      50                N/A     4/ 4
44056 DUCK FRF   0400      46                N/A     3/ 5
OREGON INLET NC  0400   48 48   30/ 12/ 15 1023.7R
HATTERAS NC      0400   49 49   30/ 12/ 16 1022.8R
DIAMOND SHLS NC  0400   58                 1021.5F   4/ 5
CAPE LOOKOUT NC  0300   46      20/ 16/ 19 1022.0F
$$



USA.gov is the U.S. government's official web portal to all federal, state and local government web resources and services.